Year,Month,Day,Hour,Minute,Value (Times are PST for temperature in C)
2008,09,16,00,00,11.70
2008,09,16,00,01,11.70
2008,09,16,00,02,11.70
2008,09,16,00,03,11.60
2008,09,16,00,04,11.60
2008,09,16,00,05,11.60
2008,09,16,00,06,11.60
2008,09,16,00,07,11.60
2008,09,16,00,08,11.60
2008,09,16,00,09,11.60
2008,09,16,00,10,11.60
2008,09,16,00,11,11.50
2008,09,16,00,12,11.50
2008,09,16,00,13,11.50
2008,09,16,00,14,11.60
2008,09,16,00,15,11.60
2008,09,16,00,16,11.60
2008,09,16,00,17,11.60
2008,09,16,00,18,11.60
2008,09,16,00,19,11.60
2008,09,16,00,20,11.60
2008,09,16,00,21,11.60
2008,09,16,00,22,11.60
2008,09,16,00,23,11.60
2008,09,16,00,24,11.60
2008,09,16,00,25,11.60
2008,09,16,00,26,11.60
2008,09,16,00,27,11.60
2008,09,16,00,28,11.60
2008,09,16,00,29,11.60
2008,09,16,00,30,11.60
2008,09,16,00,31,11.50
2008,09,16,00,32,11.50
2008,09,16,00,33,11.50
2008,09,16,00,34,11.40
2008,09,16,00,35,11.40
2008,09,16,00,36,11.30
2008,09,16,00,37,11.30
2008,09,16,00,38,11.30
2008,09,16,00,39,11.30
2008,09,16,00,40,11.20
2008,09,16,00,41,11.20
2008,09,16,00,42,11.20
2008,09,16,00,43,11.10
2008,09,16,00,44,11.10
2008,09,16,00,45,11.10
2008,09,16,00,46,11.10
2008,09,16,00,47,11.10
2008,09,16,00,48,11.00
2008,09,16,00,49,11.00
2008,09,16,00,50,10.90
2008,09,16,00,51,10.90
2008,09,16,00,52,10.90
2008,09,16,00,53,10.90
2008,09,16,00,54,10.90
2008,09,16,00,55,10.90
2008,09,16,00,56,10.90
2008,09,16,00,57,10.90
2008,09,16,00,58,10.90
2008,09,16,00,59,10.90
2008,09,16,01,00,10.90
2008,09,16,01,01,10.80
2008,09,16,01,02,10.80
2008,09,16,01,03,10.80
2008,09,16,01,04,10.80
2008,09,16,01,05,10.80
2008,09,16,01,06,10.80
2008,09,16,01,07,10.80
2008,09,16,01,08,10.80
2008,09,16,01,09,10.80
2008,09,16,01,10,10.80
2008,09,16,01,11,10.80
2008,09,16,01,12,10.80
2008,09,16,01,13,10.80
2008,09,16,01,14,10.70
2008,09,16,01,15,10.70
2008,09,16,01,16,10.70
2008,09,16,01,17,10.70
2008,09,16,01,18,10.70
2008,09,16,01,19,10.70
2008,09,16,01,20,10.70
2008,09,16,01,21,10.70
2008,09,16,01,22,10.70
2008,09,16,01,23,10.60
2008,09,16,01,24,10.60
2008,09,16,01,25,10.60
2008,09,16,01,26,10.60
2008,09,16,01,27,10.60
2008,09,16,01,28,10.60
2008,09,16,01,29,10.60
2008,09,16,01,30,10.60
2008,09,16,01,31,10.60
2008,09,16,01,32,10.50
2008,09,16,01,33,10.50
2008,09,16,01,34,10.50
2008,09,16,01,35,10.40
2008,09,16,01,36,10.40
2008,09,16,01,37,10.40
2008,09,16,01,38,10.40
2008,09,16,01,39,10.40
2008,09,16,01,40,10.40
2008,09,16,01,41,10.30
2008,09,16,01,42,10.30
2008,09,16,01,43,10.30
2008,09,16,01,44,10.30
2008,09,16,01,45,10.30
2008,09,16,01,46,10.30
2008,09,16,01,47,10.30
2008,09,16,01,48,10.20
2008,09,16,01,49,10.20
2008,09,16,01,50,10.20
2008,09,16,01,51,10.10
2008,09,16,01,52,10.10
2008,09,16,01,53,10.10
2008,09,16,01,54,10.00
2008,09,16,01,55,10.00
2008,09,16,01,56,9.90
2008,09,16,01,57,9.90
2008,09,16,01,58,9.90
2008,09,16,01,59,9.90
2008,09,16,02,00,9.80
2008,09,16,02,01,9.80
2008,09,16,02,02,9.80
2008,09,16,02,03,9.80
2008,09,16,02,04,9.80
2008,09,16,02,05,9.80
2008,09,16,02,06,9.70
2008,09,16,02,07,9.70
2008,09,16,02,08,9.70
2008,09,16,02,09,9.70
2008,09,16,02,10,9.70
2008,09,16,02,11,9.70
2008,09,16,02,12,9.60
2008,09,16,02,13,9.60
2008,09,16,02,14,9.60
2008,09,16,02,15,9.60
2008,09,16,02,16,9.60
2008,09,16,02,17,9.50
2008,09,16,02,18,9.50
2008,09,16,02,19,9.50
2008,09,16,02,20,9.50
2008,09,16,02,21,9.50
2008,09,16,02,22,9.60
2008,09,16,02,23,9.60
2008,09,16,02,24,9.60
2008,09,16,02,25,9.60
2008,09,16,02,26,9.70
2008,09,16,02,27,9.70
2008,09,16,02,28,9.70
2008,09,16,02,29,9.80
2008,09,16,02,30,9.80
2008,09,16,02,31,9.80
2008,09,16,02,32,9.80
2008,09,16,02,33,9.80
2008,09,16,02,34,9.80
2008,09,16,02,35,9.80
2008,09,16,02,36,9.80
2008,09,16,02,37,9.80
2008,09,16,02,38,9.70
2008,09,16,02,39,9.70
2008,09,16,02,40,9.70
2008,09,16,02,41,9.70
2008,09,16,02,42,9.70
2008,09,16,02,43,9.70
2008,09,16,02,44,9.60
2008,09,16,02,45,9.60
2008,09,16,02,46,9.60
2008,09,16,02,47,9.50
2008,09,16,02,48,9.50
2008,09,16,02,49,9.40
2008,09,16,02,50,9.40
2008,09,16,02,51,9.30
2008,09,16,02,52,9.30
2008,09,16,02,53,9.30
2008,09,16,02,54,9.20
2008,09,16,02,55,9.20
2008,09,16,02,56,9.20
2008,09,16,02,57,9.20
2008,09,16,02,58,9.10
2008,09,16,02,59,9.10
2008,09,16,03,00,9.10
2008,09,16,03,01,9.10
2008,09,16,03,02,9.00
2008,09,16,03,03,9.00
2008,09,16,03,04,9.00
2008,09,16,03,05,8.90
2008,09,16,03,06,8.90
2008,09,16,03,07,8.90
2008,09,16,03,08,8.90
2008,09,16,03,09,8.90
2008,09,16,03,10,8.90
2008,09,16,03,11,8.90
2008,09,16,03,12,8.80
2008,09,16,03,13,8.80
2008,09,16,03,14,8.80
2008,09,16,03,15,8.80
2008,09,16,03,16,8.80
2008,09,16,03,17,8.80
2008,09,16,03,18,8.80
2008,09,16,03,19,8.80
2008,09,16,03,20,8.80
2008,09,16,03,21,8.90
2008,09,16,03,22,8.90
2008,09,16,03,23,8.90
2008,09,16,03,24,8.90
2008,09,16,03,25,8.90
2008,09,16,03,26,8.90
2008,09,16,03,27,8.90
2008,09,16,03,28,8.90
2008,09,16,03,29,8.90
2008,09,16,03,30,8.90
2008,09,16,03,31,9.00
2008,09,16,03,32,9.00
2008,09,16,03,33,8.90
2008,09,16,03,34,8.90
2008,09,16,03,35,8.90
2008,09,16,03,36,8.90
2008,09,16,03,37,8.90
2008,09,16,03,38,8.90
2008,09,16,03,39,8.90
2008,09,16,03,40,8.80
2008,09,16,03,41,8.80
2008,09,16,03,42,8.80
2008,09,16,03,43,8.70
2008,09,16,03,44,8.70
2008,09,16,03,45,8.70
2008,09,16,03,46,8.70
2008,09,16,03,47,8.60
2008,09,16,03,48,8.60
2008,09,16,03,49,8.60
2008,09,16,03,50,8.60
2008,09,16,03,51,8.50
2008,09,16,03,52,8.50
2008,09,16,03,53,8.50
2008,09,16,03,54,8.40
2008,09,16,03,55,8.40
2008,09,16,03,56,8.40
2008,09,16,03,57,8.40
2008,09,16,03,58,8.40
2008,09,16,03,59,8.40
2008,09,16,04,00,8.40
2008,09,16,04,01,8.40
2008,09,16,04,02,8.50
2008,09,16,04,03,8.50
2008,09,16,04,04,8.60
2008,09,16,04,05,8.60
2008,09,16,04,06,8.70
2008,09,16,04,07,8.70
2008,09,16,04,08,8.70
2008,09,16,04,09,8.70
2008,09,16,04,10,8.70
2008,09,16,04,11,8.70
2008,09,16,04,12,8.70
2008,09,16,04,13,8.70
2008,09,16,04,14,8.70
2008,09,16,04,15,8.70
2008,09,16,04,16,8.70
2008,09,16,04,17,8.60
2008,09,16,04,18,8.60
2008,09,16,04,19,8.60
2008,09,16,04,20,8.60
2008,09,16,04,21,8.60
2008,09,16,04,22,8.50
2008,09,16,04,23,8.50
2008,09,16,04,24,8.40
2008,09,16,04,25,8.40
2008,09,16,04,26,8.30
2008,09,16,04,27,8.30
2008,09,16,04,28,8.20
2008,09,16,04,29,8.20
2008,09,16,04,30,8.20
2008,09,16,04,31,8.20
2008,09,16,04,32,8.20
2008,09,16,04,33,8.10
2008,09,16,04,34,8.10
2008,09,16,04,35,8.10
2008,09,16,04,36,8.10
2008,09,16,04,37,8.10
2008,09,16,04,38,8.10
2008,09,16,04,39,8.10
2008,09,16,04,40,8.10
2008,09,16,04,41,8.10
2008,09,16,04,42,8.20
2008,09,16,04,43,8.20
2008,09,16,04,44,8.30
2008,09,16,04,45,8.40
2008,09,16,04,46,8.50
2008,09,16,04,47,8.50
2008,09,16,04,48,8.50
2008,09,16,04,49,8.60
2008,09,16,04,50,8.60
2008,09,16,04,51,8.60
2008,09,16,04,52,8.50
2008,09,16,04,53,8.50
2008,09,16,04,54,8.50
2008,09,16,04,55,8.40
2008,09,16,04,56,8.40
2008,09,16,04,57,8.30
2008,09,16,04,58,8.30
2008,09,16,04,59,8.30
2008,09,16,05,00,8.20
2008,09,16,05,01,8.20
2008,09,16,05,02,8.10
2008,09,16,05,03,8.10
2008,09,16,05,04,8.10
2008,09,16,05,05,8.10
2008,09,16,05,06,8.10
2008,09,16,05,07,8.00
2008,09,16,05,08,8.00
2008,09,16,05,09,8.00
2008,09,16,05,10,8.00
2008,09,16,05,11,8.00
2008,09,16,05,12,7.90
2008,09,16,05,13,7.90
2008,09,16,05,14,7.90
2008,09,16,05,15,7.80
2008,09,16,05,16,7.80
2008,09,16,05,17,7.80
2008,09,16,05,18,7.80
2008,09,16,05,19,7.80
2008,09,16,05,20,7.80
2008,09,16,05,21,7.80
2008,09,16,05,22,7.80
2008,09,16,05,23,7.80
2008,09,16,05,24,7.80
2008,09,16,05,25,7.80
2008,09,16,05,26,7.80
2008,09,16,05,27,7.80
2008,09,16,05,28,7.80
2008,09,16,05,29,7.80
2008,09,16,05,30,7.80
2008,09,16,05,31,7.80
2008,09,16,05,32,7.90
2008,09,16,05,33,7.80
2008,09,16,05,34,7.80
2008,09,16,05,35,7.90
2008,09,16,05,36,7.90
2008,09,16,05,37,7.90
2008,09,16,05,38,7.90
2008,09,16,05,39,7.90
2008,09,16,05,40,7.90
2008,09,16,05,41,7.90
2008,09,16,05,42,8.00
2008,09,16,05,43,8.00
2008,09,16,05,44,8.00
2008,09,16,05,45,8.00
2008,09,16,05,46,7.90
2008,09,16,05,47,7.90
2008,09,16,05,48,7.90
2008,09,16,05,49,7.90
2008,09,16,05,50,7.90
2008,09,16,05,51,7.90
2008,09,16,05,52,7.90
2008,09,16,05,53,7.80
2008,09,16,05,54,7.80
2008,09,16,05,55,7.80
2008,09,16,05,56,7.80
2008,09,16,05,57,7.80
2008,09,16,05,58,7.80
2008,09,16,05,59,7.80
2008,09,16,06,00,7.80
2008,09,16,06,01,7.70
2008,09,16,06,02,7.70
2008,09,16,06,03,7.70
2008,09,16,06,04,7.70
2008,09,16,06,05,7.70
2008,09,16,06,06,7.60
2008,09,16,06,07,7.60
2008,09,16,06,08,7.60
2008,09,16,06,09,7.60
2008,09,16,06,10,7.60
2008,09,16,06,11,7.50
2008,09,16,06,12,7.50
2008,09,16,06,13,7.50
2008,09,16,06,14,7.40
2008,09,16,06,15,7.40
2008,09,16,06,16,7.40
2008,09,16,06,17,7.40
2008,09,16,06,18,7.40
2008,09,16,06,19,7.40
2008,09,16,06,20,7.30
2008,09,16,06,21,7.30
2008,09,16,06,22,7.30
2008,09,16,06,23,7.30
2008,09,16,06,24,7.30
2008,09,16,06,25,7.20
2008,09,16,06,26,7.20
2008,09,16,06,27,7.20
2008,09,16,06,28,7.20
2008,09,16,06,29,7.20
2008,09,16,06,30,7.20
2008,09,16,06,31,7.20
2008,09,16,06,32,7.20
2008,09,16,06,33,7.20
2008,09,16,06,34,7.20
2008,09,16,06,35,7.20
2008,09,16,06,36,7.20
2008,09,16,06,37,7.20
2008,09,16,06,38,7.20
2008,09,16,06,39,7.20
2008,09,16,06,40,7.10
2008,09,16,06,41,7.10
2008,09,16,06,42,7.10
2008,09,16,06,43,7.10
2008,09,16,06,44,7.10
2008,09,16,06,45,7.00
2008,09,16,06,46,7.00
2008,09,16,06,47,7.00
2008,09,16,06,48,7.00
2008,09,16,06,49,6.90
2008,09,16,06,50,7.00
2008,09,16,06,51,7.00
2008,09,16,06,52,7.00
2008,09,16,06,53,7.10
2008,09,16,06,54,7.20
2008,09,16,06,55,7.20
2008,09,16,06,56,7.30
2008,09,16,06,57,7.30
2008,09,16,06,58,7.30
2008,09,16,06,59,7.30
2008,09,16,07,00,7.30
2008,09,16,07,01,7.30
2008,09,16,07,02,7.30
2008,09,16,07,03,7.20
2008,09,16,07,04,7.20
2008,09,16,07,05,7.20
2008,09,16,07,06,7.20
2008,09,16,07,07,7.20
2008,09,16,07,08,7.20
2008,09,16,07,09,7.10
2008,09,16,07,10,7.10
2008,09,16,07,11,7.10
2008,09,16,07,12,7.10
2008,09,16,07,13,7.10
2008,09,16,07,14,7.00
2008,09,16,07,15,7.00
2008,09,16,07,16,7.00
2008,09,16,07,17,7.00
2008,09,16,07,18,7.10
2008,09,16,07,19,7.10
2008,09,16,07,20,7.10
2008,09,16,07,21,7.10
2008,09,16,07,22,7.10
2008,09,16,07,23,7.20
2008,09,16,07,24,7.20
2008,09,16,07,25,7.20
2008,09,16,07,26,7.20
2008,09,16,07,27,7.10
2008,09,16,07,28,7.10
2008,09,16,07,29,7.10
2008,09,16,07,30,7.10
2008,09,16,07,31,7.10
2008,09,16,07,32,7.10
2008,09,16,07,33,7.10
2008,09,16,07,34,7.10
2008,09,16,07,35,7.10
2008,09,16,07,36,7.10
2008,09,16,07,37,7.10
2008,09,16,07,38,7.10
2008,09,16,07,39,7.10
2008,09,16,07,40,7.10
2008,09,16,07,41,7.10
2008,09,16,07,42,7.20
2008,09,16,07,43,7.20
2008,09,16,07,44,7.20
2008,09,16,07,45,7.20
2008,09,16,07,46,7.20
2008,09,16,07,47,7.20
2008,09,16,07,48,7.20
2008,09,16,07,49,7.20
2008,09,16,07,50,7.20
2008,09,16,07,51,7.30
2008,09,16,07,52,7.40
2008,09,16,07,53,7.40
2008,09,16,07,54,7.50
2008,09,16,07,55,7.60
2008,09,16,07,56,7.70
2008,09,16,07,57,7.80
2008,09,16,07,58,7.80
2008,09,16,07,59,7.90
2008,09,16,08,00,8.00
2008,09,16,08,01,8.10
2008,09,16,08,02,8.20
2008,09,16,08,03,8.30
2008,09,16,08,04,8.50
2008,09,16,08,05,8.60
2008,09,16,08,06,8.70
2008,09,16,08,07,8.70
2008,09,16,08,08,8.90
2008,09,16,08,09,9.00
2008,09,16,08,10,9.10
2008,09,16,08,11,9.20
2008,09,16,08,12,9.30
2008,09,16,08,13,9.40
2008,09,16,08,14,9.50
2008,09,16,08,15,9.70
2008,09,16,08,16,9.80
2008,09,16,08,17,9.90
2008,09,16,08,18,10.00
2008,09,16,08,19,10.20
2008,09,16,08,20,10.30
2008,09,16,08,21,10.40
2008,09,16,08,22,10.60
2008,09,16,08,23,10.70
2008,09,16,08,24,10.90
2008,09,16,08,25,11.10
2008,09,16,08,26,11.20
2008,09,16,08,27,11.30
2008,09,16,08,28,11.40
2008,09,16,08,29,11.50
2008,09,16,08,30,11.70
2008,09,16,08,31,11.80
2008,09,16,08,32,12.00
2008,09,16,08,33,12.10
2008,09,16,08,34,12.20
2008,09,16,08,35,12.30
2008,09,16,08,36,12.40
2008,09,16,08,37,12.40
2008,09,16,08,38,12.50
2008,09,16,08,39,12.50
2008,09,16,08,40,12.50
2008,09,16,08,41,12.60
2008,09,16,08,42,12.60
2008,09,16,08,43,12.70
2008,09,16,08,44,12.80
2008,09,16,08,45,12.90
2008,09,16,08,46,13.00
2008,09,16,08,47,13.10
2008,09,16,08,48,13.20
2008,09,16,08,49,13.40
2008,09,16,08,50,13.50
2008,09,16,08,51,13.60
2008,09,16,08,52,13.70
2008,09,16,08,53,13.80
2008,09,16,08,54,14.00
2008,09,16,08,55,14.20
2008,09,16,08,56,14.30
2008,09,16,08,57,14.50
2008,09,16,08,58,14.70
2008,09,16,08,59,14.90
2008,09,16,09,00,15.00
2008,09,16,09,01,15.00
2008,09,16,09,02,15.10
2008,09,16,09,03,15.20
2008,09,16,09,04,15.20
2008,09,16,09,05,15.20
2008,09,16,09,06,15.20
2008,09,16,09,07,15.30
2008,09,16,09,08,15.30
2008,09,16,09,09,15.40
2008,09,16,09,10,15.40
2008,09,16,09,11,15.50
2008,09,16,09,12,15.60
2008,09,16,09,13,15.70
2008,09,16,09,14,15.80
2008,09,16,09,15,15.90
2008,09,16,09,16,16.00
2008,09,16,09,17,16.10
2008,09,16,09,18,16.10
2008,09,16,09,19,16.20
2008,09,16,09,20,16.20
2008,09,16,09,21,16.30
2008,09,16,09,22,16.40
2008,09,16,09,23,16.50
2008,09,16,09,24,16.60
2008,09,16,09,25,16.70
2008,09,16,09,26,16.80
2008,09,16,09,27,16.80
2008,09,16,09,28,17.00
2008,09,16,09,29,17.20
2008,09,16,09,30,17.40
2008,09,16,09,31,17.60
2008,09,16,09,32,17.80
2008,09,16,09,33,18.00
2008,09,16,09,34,18.10
2008,09,16,09,35,18.30
2008,09,16,09,36,18.40
2008,09,16,09,37,18.50
2008,09,16,09,38,18.70
2008,09,16,09,39,18.80
2008,09,16,09,40,19.00
2008,09,16,09,41,19.10
2008,09,16,09,42,19.30
2008,09,16,09,43,19.40
2008,09,16,09,44,19.50
2008,09,16,09,45,19.60
2008,09,16,09,46,19.70
2008,09,16,09,47,19.80
2008,09,16,09,48,19.90
2008,09,16,09,49,20.00
2008,09,16,09,50,20.10
2008,09,16,09,51,20.10
2008,09,16,09,52,20.10
2008,09,16,09,53,20.20
2008,09,16,09,54,20.20
2008,09,16,09,55,20.20
2008,09,16,09,56,20.20
2008,09,16,09,57,20.20
2008,09,16,09,58,20.20
2008,09,16,09,59,20.30
2008,09,16,10,00,20.30
2008,09,16,10,01,20.30
2008,09,16,10,02,20.40
2008,09,16,10,03,20.40
2008,09,16,10,04,20.50
2008,09,16,10,05,20.50
2008,09,16,10,06,20.60
2008,09,16,10,07,20.60
2008,09,16,10,08,20.60
2008,09,16,10,09,20.60
2008,09,16,10,10,20.70
2008,09,16,10,11,20.70
2008,09,16,10,12,20.70
2008,09,16,10,13,20.70
2008,09,16,10,14,20.70
2008,09,16,10,15,20.80
2008,09,16,10,16,20.80
2008,09,16,10,17,20.80
2008,09,16,10,18,20.90
2008,09,16,10,19,20.90
2008,09,16,10,20,20.90
2008,09,16,10,21,21.00
2008,09,16,10,22,21.10
2008,09,16,10,23,21.10
2008,09,16,10,24,21.10
2008,09,16,10,25,21.10
2008,09,16,10,26,21.10
2008,09,16,10,27,21.10
2008,09,16,10,28,21.20
2008,09,16,10,29,21.20
2008,09,16,10,30,21.30
2008,09,16,10,31,21.30
2008,09,16,10,32,21.40
2008,09,16,10,33,21.40
2008,09,16,10,34,21.40
2008,09,16,10,35,21.40
2008,09,16,10,36,21.50
2008,09,16,10,37,21.60
2008,09,16,10,38,21.60
2008,09,16,10,39,21.60
2008,09,16,10,40,21.60
2008,09,16,10,41,21.60
2008,09,16,10,42,21.50
2008,09,16,10,43,21.40
2008,09,16,10,44,21.40
2008,09,16,10,45,21.30
2008,09,16,10,46,21.20
2008,09,16,10,47,21.20
2008,09,16,10,48,21.20
2008,09,16,10,49,21.20
2008,09,16,10,50,21.30
2008,09,16,10,51,21.30
2008,09,16,10,52,21.40
2008,09,16,10,53,21.40
2008,09,16,10,54,21.40
2008,09,16,10,55,21.50
2008,09,16,10,56,21.50
2008,09,16,10,57,21.50
2008,09,16,10,58,21.50
2008,09,16,10,59,21.60
2008,09,16,11,00,21.60
2008,09,16,11,01,21.60
2008,09,16,11,02,21.60
2008,09,16,11,03,21.70
2008,09,16,11,04,21.70
2008,09,16,11,05,21.70
2008,09,16,11,06,21.60
2008,09,16,11,07,21.60
2008,09,16,11,08,21.60
2008,09,16,11,09,21.60
2008,09,16,11,10,21.60
2008,09,16,11,11,21.70
2008,09,16,11,12,21.70
2008,09,16,11,13,21.80
2008,09,16,11,14,21.80
2008,09,16,11,15,21.80
2008,09,16,11,16,21.80
2008,09,16,11,17,21.80
2008,09,16,11,18,21.90
2008,09,16,11,19,21.90
2008,09,16,11,20,21.80
2008,09,16,11,21,21.80
2008,09,16,11,22,21.80
2008,09,16,11,23,21.80
2008,09,16,11,24,21.80
2008,09,16,11,25,21.80
2008,09,16,11,26,21.90
2008,09,16,11,27,22.00
2008,09,16,11,28,22.00
2008,09,16,11,29,22.00
2008,09,16,11,30,22.00
2008,09,16,11,31,22.10
2008,09,16,11,32,22.00
2008,09,16,11,33,22.00
2008,09,16,11,34,22.00
2008,09,16,11,35,22.10
2008,09,16,11,36,22.10
2008,09,16,11,37,22.10
2008,09,16,11,38,22.10
2008,09,16,11,39,22.20
2008,09,16,11,40,22.10
2008,09,16,11,41,22.10
2008,09,16,11,42,22.20
2008,09,16,11,43,22.20
2008,09,16,11,44,22.20
2008,09,16,11,45,22.20
2008,09,16,11,46,22.20
2008,09,16,11,47,22.20
2008,09,16,11,48,22.20
2008,09,16,11,49,22.20
2008,09,16,11,50,22.30
2008,09,16,11,51,22.30
2008,09,16,11,52,22.30
2008,09,16,11,53,22.30
2008,09,16,11,54,22.30
2008,09,16,11,55,22.40
2008,09,16,11,56,22.40
2008,09,16,11,57,22.40
2008,09,16,11,58,22.50
2008,09,16,11,59,22.50
2008,09,16,12,00,22.50
2008,09,16,12,01,22.40
2008,09,16,12,02,22.30
2008,09,16,12,03,22.30
2008,09,16,12,04,22.40
2008,09,16,12,05,22.40
2008,09,16,12,06,22.40
2008,09,16,12,07,22.40
2008,09,16,12,08,22.40
2008,09,16,12,09,22.40
2008,09,16,12,10,22.40
2008,09,16,12,11,22.50
2008,09,16,12,12,22.60
2008,09,16,12,13,22.70
2008,09,16,12,14,22.70
2008,09,16,12,15,22.70
2008,09,16,12,16,22.70
2008,09,16,12,17,22.70
2008,09,16,12,18,22.70
2008,09,16,12,19,22.70
2008,09,16,12,20,22.80
2008,09,16,12,21,22.80
2008,09,16,12,22,22.80
2008,09,16,12,23,22.80
2008,09,16,12,24,22.70
2008,09,16,12,25,22.70
2008,09,16,12,26,22.70
2008,09,16,12,27,22.70
2008,09,16,12,28,22.70
2008,09,16,12,29,22.70
2008,09,16,12,30,22.80
2008,09,16,12,31,22.90
2008,09,16,12,32,22.90
2008,09,16,12,33,22.90
2008,09,16,12,34,22.90
2008,09,16,12,35,23.00
2008,09,16,12,36,23.00
2008,09,16,12,37,23.00
2008,09,16,12,38,23.00
2008,09,16,12,39,23.10
2008,09,16,12,40,23.10
2008,09,16,12,41,23.10
2008,09,16,12,42,23.10
2008,09,16,12,43,23.10
2008,09,16,12,44,23.20
2008,09,16,12,45,23.20
2008,09,16,12,46,23.20
2008,09,16,12,47,23.30
2008,09,16,12,48,23.30
2008,09,16,12,49,23.40
2008,09,16,12,50,23.40
2008,09,16,12,51,23.50
2008,09,16,12,52,23.50
2008,09,16,12,53,23.50
2008,09,16,12,54,23.50
2008,09,16,12,55,23.60
2008,09,16,12,56,23.50
2008,09,16,12,57,23.50
2008,09,16,12,58,23.60
2008,09,16,12,59,23.70
2008,09,16,13,00,23.70
2008,09,16,13,01,23.70
2008,09,16,13,02,23.60
2008,09,16,13,03,23.50
2008,09,16,13,04,23.50
2008,09,16,13,05,23.40
2008,09,16,13,06,23.40
2008,09,16,13,07,23.40
2008,09,16,13,08,23.40
2008,09,16,13,09,23.40
2008,09,16,13,10,23.30
2008,09,16,13,11,23.30
2008,09,16,13,12,23.30
2008,09,16,13,13,23.30
2008,09,16,13,14,23.20
2008,09,16,13,15,23.10
2008,09,16,13,16,23.10
2008,09,16,13,17,23.00
2008,09,16,13,18,23.00
2008,09,16,13,19,22.90
2008,09,16,13,20,22.90
2008,09,16,13,21,22.90
2008,09,16,13,22,23.00
2008,09,16,13,23,23.00
2008,09,16,13,24,23.00
2008,09,16,13,25,23.00
2008,09,16,13,26,22.90
2008,09,16,13,27,23.00
2008,09,16,13,28,23.00
2008,09,16,13,29,23.00
2008,09,16,13,30,23.00
2008,09,16,13,31,23.00
2008,09,16,13,32,23.10
2008,09,16,13,33,23.10
2008,09,16,13,34,23.20
2008,09,16,13,35,23.30
2008,09,16,13,36,23.40
2008,09,16,13,37,23.50
2008,09,16,13,38,23.70
2008,09,16,13,39,23.90
2008,09,16,13,40,24.10
2008,09,16,13,41,24.20
2008,09,16,13,42,24.40
2008,09,16,13,43,24.50
2008,09,16,13,44,24.60
2008,09,16,13,45,24.70
2008,09,16,13,46,24.80
2008,09,16,13,47,24.70
2008,09,16,13,48,24.70
2008,09,16,13,49,24.80
2008,09,16,13,50,24.80
2008,09,16,13,51,24.70
2008,09,16,13,52,24.70
2008,09,16,13,53,24.80
2008,09,16,13,54,24.80
2008,09,16,13,55,24.80
2008,09,16,13,56,24.80
2008,09,16,13,57,24.80
2008,09,16,13,58,24.90
2008,09,16,13,59,24.90
2008,09,16,14,00,24.90
2008,09,16,14,01,24.90
2008,09,16,14,02,24.90
2008,09,16,14,03,24.90
2008,09,16,14,04,24.80
2008,09,16,14,05,24.80
2008,09,16,14,06,24.80
2008,09,16,14,07,24.90
2008,09,16,14,08,24.90
2008,09,16,14,09,25.00
2008,09,16,14,10,25.00
2008,09,16,14,11,25.00
2008,09,16,14,12,25.00
2008,09,16,14,13,25.10
2008,09,16,14,14,25.00
2008,09,16,14,15,25.00
2008,09,16,14,16,24.90
2008,09,16,14,17,24.90
2008,09,16,14,18,24.90
2008,09,16,14,19,24.80
2008,09,16,14,20,24.80
2008,09,16,14,21,24.90
2008,09,16,14,22,24.90
2008,09,16,14,23,24.90
2008,09,16,14,24,24.90
2008,09,16,14,25,24.90
2008,09,16,14,26,24.80
2008,09,16,14,27,24.80
2008,09,16,14,28,24.80
2008,09,16,14,29,24.90
2008,09,16,14,30,24.80
2008,09,16,14,31,24.80
2008,09,16,14,32,24.90
2008,09,16,14,33,24.90
2008,09,16,14,34,25.00
2008,09,16,14,35,25.10
2008,09,16,14,36,25.20
2008,09,16,14,37,25.20
2008,09,16,14,38,25.20
2008,09,16,14,39,25.20
2008,09,16,14,40,25.20
2008,09,16,14,41,25.30
2008,09,16,14,42,25.30
2008,09,16,14,43,25.40
2008,09,16,14,44,25.40
2008,09,16,14,45,25.40
2008,09,16,14,46,25.40
2008,09,16,14,47,25.30
2008,09,16,14,48,25.30
2008,09,16,14,49,25.30
2008,09,16,14,50,25.30
2008,09,16,14,51,25.30
2008,09,16,14,52,25.30
2008,09,16,14,53,25.40
2008,09,16,14,54,25.50
2008,09,16,14,55,25.50
2008,09,16,14,56,25.50
2008,09,16,14,57,25.50
2008,09,16,14,58,25.50
2008,09,16,14,59,25.60
2008,09,16,15,00,25.60
2008,09,16,15,01,25.60
2008,09,16,15,02,25.60
2008,09,16,15,03,25.40
2008,09,16,15,04,25.50
2008,09,16,15,05,25.50
2008,09,16,15,06,25.50
2008,09,16,15,07,25.50
2008,09,16,15,08,25.50
2008,09,16,15,09,25.50
2008,09,16,15,10,25.50
2008,09,16,15,11,25.50
2008,09,16,15,12,25.60
2008,09,16,15,13,25.60
2008,09,16,15,14,25.60
2008,09,16,15,15,25.60
2008,09,16,15,16,25.50
2008,09,16,15,17,25.40
2008,09,16,15,18,25.40
2008,09,16,15,19,25.30
2008,09,16,15,20,25.30
2008,09,16,15,21,25.20
2008,09,16,15,22,25.20
2008,09,16,15,23,25.20
2008,09,16,15,24,25.10
2008,09,16,15,25,25.10
2008,09,16,15,26,25.00
2008,09,16,15,27,25.00
2008,09,16,15,28,24.90
2008,09,16,15,29,25.00
2008,09,16,15,30,25.00
2008,09,16,15,31,25.10
2008,09,16,15,32,25.30
2008,09,16,15,33,25.40
2008,09,16,15,34,25.40
2008,09,16,15,35,25.40
2008,09,16,15,36,25.60
2008,09,16,15,37,25.60
2008,09,16,15,38,25.60
2008,09,16,15,39,25.60
2008,09,16,15,40,25.60
2008,09,16,15,41,25.60
2008,09,16,15,42,25.60
2008,09,16,15,43,25.50
2008,09,16,15,44,25.40
2008,09,16,15,45,25.40
2008,09,16,15,46,25.40
2008,09,16,15,47,25.40
2008,09,16,15,48,25.40
2008,09,16,15,49,25.50
2008,09,16,15,50,25.50
2008,09,16,15,51,25.50
2008,09,16,15,52,25.60
2008,09,16,15,53,25.70
2008,09,16,15,54,25.80
2008,09,16,15,55,25.80
2008,09,16,15,56,25.80
2008,09,16,15,57,25.70
2008,09,16,15,58,25.60
2008,09,16,15,59,25.50
2008,09,16,16,00,25.40
2008,09,16,16,01,25.30
2008,09,16,16,02,25.30
2008,09,16,16,03,25.30
2008,09,16,16,04,25.30
2008,09,16,16,05,25.40
2008,09,16,16,06,25.40
2008,09,16,16,07,25.40
2008,09,16,16,08,25.40
2008,09,16,16,09,25.50
2008,09,16,16,10,25.60
2008,09,16,16,11,25.60
2008,09,16,16,12,25.60
2008,09,16,16,13,25.60
2008,09,16,16,14,25.70
2008,09,16,16,15,25.60
2008,09,16,16,16,25.50
2008,09,16,16,17,25.50
2008,09,16,16,18,25.50
2008,09,16,16,19,25.40
2008,09,16,16,20,25.50
2008,09,16,16,21,25.60
2008,09,16,16,22,25.60
2008,09,16,16,23,25.60
2008,09,16,16,24,25.60
2008,09,16,16,25,25.60
2008,09,16,16,26,25.50
2008,09,16,16,27,25.50
2008,09,16,16,28,25.40
2008,09,16,16,29,25.40
2008,09,16,16,30,25.40
2008,09,16,16,31,25.40
2008,09,16,16,32,25.40
2008,09,16,16,33,25.40
2008,09,16,16,34,25.50
2008,09,16,16,35,25.40
2008,09,16,16,36,25.50
2008,09,16,16,37,25.50
2008,09,16,16,38,25.50
2008,09,16,16,39,25.40
2008,09,16,16,40,25.50
2008,09,16,16,41,25.50
2008,09,16,16,42,25.50
2008,09,16,16,43,25.50
2008,09,16,16,44,25.40
2008,09,16,16,45,25.40
2008,09,16,16,46,25.40
2008,09,16,16,47,25.40
2008,09,16,16,48,25.40
2008,09,16,16,49,25.50
2008,09,16,16,50,25.60
2008,09,16,16,51,25.70
2008,09,16,16,52,25.70
2008,09,16,16,53,25.70
2008,09,16,16,54,25.60
2008,09,16,16,55,25.60
2008,09,16,16,56,25.60
2008,09,16,16,57,25.50
2008,09,16,16,58,25.40
2008,09,16,16,59,25.40
2008,09,16,17,00,25.40
2008,09,16,17,01,25.40
2008,09,16,17,02,25.30
2008,09,16,17,03,25.30
2008,09,16,17,04,25.30
2008,09,16,17,05,25.30
2008,09,16,17,06,25.30
2008,09,16,17,07,25.30
2008,09,16,17,08,25.20
2008,09,16,17,09,25.20
2008,09,16,17,10,25.10
2008,09,16,17,11,25.10
2008,09,16,17,12,25.10
2008,09,16,17,13,25.10
2008,09,16,17,14,25.10
2008,09,16,17,15,25.10
2008,09,16,17,16,25.10
2008,09,16,17,17,25.10
2008,09,16,17,18,25.10
2008,09,16,17,19,25.10
2008,09,16,17,20,25.10
2008,09,16,17,21,25.10
2008,09,16,17,22,25.00
2008,09,16,17,23,25.10
2008,09,16,17,24,25.20
2008,09,16,17,25,25.20
2008,09,16,17,26,25.30
2008,09,16,17,27,25.40
2008,09,16,17,28,25.40
2008,09,16,17,29,25.40
2008,09,16,17,30,25.50
2008,09,16,17,31,25.40
2008,09,16,17,32,25.40
2008,09,16,17,33,25.40
2008,09,16,17,34,25.40
2008,09,16,17,35,25.40
2008,09,16,17,36,25.30